Weather History for Aurora, NE

Change the Weather History Date:

Tuesday, January 1, 2013

  Actual Average Record
Temperature  
Mean Temperature 13 °F -  
Max Temperature 21 °F 31 °F 59 °F (1964)
Min Temperature 5 °F 11 °F -20 °F (1974)
Degree Days  
Heating Degree Days 52    
Moisture  
Dew Point 11 °F    
Average Humidity 88    
Maximum Humidity 95    
Minimum Humidity 82    
Precipitation  
Precipitation 0.00 in - - ()
Sea Level Pressure  
Sea Level Pressure 30.18 in    
Wind  
Wind Speed 7 mph (West)    
Max Wind Speed 15 mph    
Max Gust Speed -    
Visibility 6 miles    
Events Fog    
Averages and records for this station are not official NWS values.
T = Trace of Precipitation, MM = Missing Value Source: NWS Daily Summary

Daily Weather History Graph

Daily Weather History Graph

Search for Another Location

Airport:

Trip Planner

Search our weather history database for the weather conditions in past years. The results will help you decide how hot, cold, wet, or windy it might be!

Date:

Astronomy

Jan. 01, 2013 Rise Set
Actual Time 7:56 AM CST 5:15 PM CST
Civil Twilight 7:25 AM CST 5:45 PM CST
Nautical Twilight 6:51 AM CST 6:20 PM CST
Astronomical Twilight 6:17 AM CST 6:53 PM CST
Moon 9:49 PM CST (1/1) 10:07 AM CST (1/1)
Length of Visible Light 10h 20m
Length of Day
9h 18m
Waning Gibbous, 83% of the Moon is Illuminated
Jan 1
Waning Gibbous
Jan 4
Last Quarter
Jan 11
New
Jan 18
First Quarter
Jan 26
Full

Hourly Weather History & Observations

Time (CST) Temp. Windchill Dew Point Humidity Pressure Visibility Wind Dir Wind Speed Gust Speed Precip Events Conditions
12:15 AM 14.7 °F 7.3 °F 12.6 °F 91% 30.20 in 10.0 mi NW 4.6 mph - N/A   Overcast
12:35 AM 14.0 °F 8.2 °F 12.2 °F 93% 30.20 in 7.0 mi NW 3.5 mph - N/A   Overcast
12:55 AM 13.6 °F 6.0 °F 11.5 °F 91% 30.20 in 7.0 mi NW 4.6 mph - N/A   Overcast
1:15 AM 13.5 °F 5.8 °F 11.7 °F 93% 30.20 in 7.0 mi NW 4.6 mph - N/A   Overcast
1:35 AM 13.6 °F 6.0 °F 11.5 °F 91% 30.21 in 7.0 mi NW 4.6 mph - N/A   Overcast
1:55 AM 13.1 °F 4.0 °F 11.1 °F 92% 30.20 in 10.0 mi NW 5.8 mph - N/A   Mostly Cloudy
2:15 AM 13.1 °F 4.0 °F 11.1 °F 92% 30.21 in 7.0 mi NW 5.8 mph - N/A   Mostly Cloudy
2:35 AM 12.0 °F 2.7 °F 10.0 °F 92% 30.21 in 7.0 mi NW 5.8 mph - N/A   Scattered Clouds
2:55 AM 12.2 °F 4.3 °F 10.4 °F 92% 30.22 in 7.0 mi NW 4.6 mph - N/A   Mostly Cloudy
3:15 AM 12.4 °F 4.6 °F 10.4 °F 92% 30.22 in 7.0 mi NNW 4.6 mph - N/A   Overcast
3:35 AM 12.2 °F 6.1 °F 10.4 °F 92% 30.22 in 7.0 mi North 3.5 mph - N/A   Mostly Cloudy
3:55 AM 12.9 °F 6.9 °F 11.3 °F 93% 30.22 in 7.0 mi North 3.5 mph - N/A   Scattered Clouds
4:15 AM 11.5 °F 3.5 °F 9.9 °F 93% 30.22 in 7.0 mi NNW 4.6 mph - N/A   Clear
4:35 AM 10.0 °F 0.4 °F 7.7 °F 90% 30.22 in 7.0 mi NNW 5.8 mph - N/A   Clear
4:55 AM 9.7 °F -1.3 °F 7.7 °F 92% 30.21 in 5.0 mi NNW 6.9 mph - N/A   Clear
5:15 AM 9.3 °F -1.7 °F 7.5 °F 92% 30.21 in 5.0 mi NNW 6.9 mph - N/A   Clear
5:35 AM 8.2 °F -3.0 °F 5.9 °F 90% 30.20 in 5.0 mi NNW 6.9 mph - N/A   Clear
5:55 AM 7.3 °F -2.8 °F 5.0 °F 90% 30.21 in 5.0 mi NW 5.8 mph - N/A   Clear
6:15 AM 6.8 °F -3.5 °F 4.1 °F 89% 30.20 in 5.0 mi NNW 5.8 mph - N/A   Clear
6:35 AM 7.3 °F -4.1 °F 4.8 °F 89% 30.20 in 4.0 mi NNW 6.9 mph - N/A   Clear
6:55 AM 6.1 °F -5.6 °F 3.2 °F 88% 30.21 in 4.0 mi NW 6.9 mph - N/A   Clear
7:15 AM 5.5 °F -5.0 °F 2.7 °F 88% 30.22 in 5.0 mi NW 5.8 mph - N/A   Clear
7:35 AM 7.5 °F -1.1 °F 5.0 °F 89% 30.22 in 1.0 mi WNW 4.6 mph - N/A   Overcast
7:55 AM 9.9 °F 3.4 °F 7.7 °F 91% 30.23 in 2.0 mi NW 3.5 mph - N/A   Overcast
8:15 AM 11.1 °F 4.9 °F 8.6 °F 90% 30.23 in 0.2 mi West 3.5 mph - N/A Fog Light Freezing Fog
8:35 AM 10.8 °F - 8.2 °F 90% 30.24 in 0.2 mi Calm Calm - N/A Fog Light Freezing Fog
8:55 AM 11.3 °F 5.1 °F 9.1 °F 91% 30.25 in 0.2 mi West 3.5 mph - N/A Fog Light Freezing Fog
9:15 AM 11.8 °F - 9.5 °F 90% 30.25 in 0.2 mi Calm Calm - N/A Fog Light Freezing Fog
9:35 AM 12.7 °F 6.7 °F 10.8 °F 92% 30.25 in 0.2 mi West 3.5 mph - N/A Fog Light Freezing Fog
9:55 AM 13.6 °F 7.7 °F 11.5 °F 91% 30.26 in 0.2 mi WSW 3.5 mph - N/A Fog Light Freezing Fog
10:15 AM - - - N/A% 30.26 in 0.2 mi Calm Calm - N/A Fog Light Freezing Fog
10:35 AM 14.9 °F 9.2 °F 13.3 °F 93% 30.27 in 0.2 mi WSW 3.5 mph - N/A Fog Light Freezing Fog
10:55 AM - - - N/A% 30.27 in 0.2 mi SW 4.6 mph - N/A Fog Fog
11:15 AM - - - N/A% 30.26 in 0.5 mi SW 3.5 mph - N/A Fog Fog
11:35 AM - - - N/A% 30.25 in 0.5 mi SW 4.6 mph - N/A Fog Fog
11:55 AM - - - N/A% 30.24 in 0.8 mi SW 8.1 mph - N/A   Overcast
12:15 PM - - - N/A% 30.22 in 1.2 mi SW 10.4 mph - N/A   Overcast
12:35 PM - - - N/A% 30.21 in 1.8 mi SW 11.5 mph - N/A   Overcast
12:55 PM - - - N/A% 30.20 in 1.2 mi SW 10.4 mph - N/A   Overcast
1:15 PM - - - N/A% 30.19 in 3.0 mi SW 12.7 mph - N/A   Scattered Clouds
1:35 PM - - - N/A% 30.18 in 4.0 mi SW 12.7 mph - N/A   Haze
1:55 PM - - - N/A% 30.17 in 4.0 mi SW 12.7 mph - N/A   Haze
2:15 PM - - - N/A% 30.16 in 7.0 mi SW 13.8 mph - N/A   Clear
2:35 PM - - - N/A% 30.16 in 7.0 mi SW 12.7 mph - N/A   Clear
2:55 PM 19.8 °F 7.7 °F 18.5 °F 95% 30.15 in 7.0 mi SW 11.5 mph - N/A   Clear
3:15 PM 20.8 °F 7.9 °F 17.6 °F 87% 30.15 in 7.0 mi WSW 13.8 mph - N/A   Clear
3:35 PM 21.2 °F 7.8 °F 16.7 °F 83% 30.15 in 10.0 mi WSW 15.0 mph - N/A   Clear
3:55 PM 21.2 °F 10.1 °F 16.7 °F 83% 30.15 in 10.0 mi SW 10.4 mph - N/A   Clear
4:15 PM 21.2 °F 10.1 °F 17.1 °F 84% 30.15 in 10.0 mi SW 10.4 mph - N/A   Clear
4:35 PM 20.8 °F 9.7 °F 16.5 °F 83% 30.13 in 10.0 mi SW 10.4 mph - N/A   Clear
5:15 PM 19.8 °F 8.3 °F 15.8 °F 85% 30.13 in 10.0 mi SW 10.4 mph - N/A   Clear
5:35 PM 19.4 °F 7.2 °F 15.4 °F 85% 30.12 in 10.0 mi SW 11.5 mph - N/A   Clear
5:55 PM 19.0 °F 7.5 °F 15.4 °F 86% 30.12 in 10.0 mi SW 10.4 mph - N/A   Clear
6:15 PM 17.8 °F 6.6 °F 14.4 °F 86% 30.12 in 10.0 mi SW 9.2 mph - N/A   Clear
6:35 PM 17.6 °F 5.7 °F 14.4 °F 87% 30.12 in 10.0 mi SW 10.4 mph - N/A   Clear
6:55 PM 17.4 °F 4.1 °F 14.0 °F 86% 30.12 in 10.0 mi SW 12.7 mph - N/A   Clear
7:15 PM 17.2 °F 3.9 °F 13.8 °F 86% 30.12 in 10.0 mi WSW 12.7 mph - N/A   Clear
7:35 PM 16.3 °F 3.4 °F 13.1 °F 87% 30.12 in 10.0 mi SW 11.5 mph - N/A   Clear
7:55 PM 16.2 °F 3.9 °F 12.9 °F 87% 30.12 in 10.0 mi WSW 10.4 mph - N/A   Clear
8:15 PM 16.5 °F 2.4 °F 13.1 °F 86% 30.11 in 10.0 mi SW 13.8 mph - N/A   Clear
8:35 PM 16.5 °F 2.4 °F 12.9 °F 86% 30.11 in 10.0 mi WSW 13.8 mph - N/A   Clear
8:55 PM 15.8 °F 1.4 °F 12.2 °F 86% 30.10 in 10.0 mi WSW 13.8 mph - N/A   Clear
9:15 PM 15.1 °F 1.1 °F 11.3 °F 85% 30.10 in 10.0 mi WSW 12.7 mph - N/A   Clear
9:35 PM 14.9 °F 0.3 °F 11.3 °F 86% 30.09 in 10.0 mi SW 13.8 mph - N/A   Clear
9:55 PM 13.8 °F 1.8 °F 10.2 °F 86% 30.08 in 10.0 mi WSW 9.2 mph - N/A   Clear
10:15 PM 13.3 °F 0.3 °F 9.7 °F 86% 30.08 in 10.0 mi WSW 10.4 mph - N/A   Clear
10:35 PM 14.0 °F 1.2 °F 10.2 °F 85% 30.07 in 10.0 mi WSW 10.4 mph - N/A   Clear
10:55 PM 13.8 °F -1.1 °F 9.9 °F 84% 30.08 in 10.0 mi SW 13.8 mph - N/A   Clear
11:15 PM 13.1 °F -0.7 °F 9.3 °F 85% 30.08 in 10.0 mi WSW 11.5 mph - N/A   Clear
11:35 PM 13.8 °F 0.2 °F 9.5 °F 83% 30.08 in 10.0 mi SW 11.5 mph - N/A   Clear
11:55 PM 13.6 °F 0.7 °F 9.1 °F 82% 30.07 in 10.0 mi SW 10.4 mph - N/A   Clear